Time,TemperatureF,DewpointF,PressureIn,WindDirection,WindDirectionDegrees,WindSpeedMPH,WindSpeedGustMPH,Humidity,HourlyPrecipIn,Conditions,Clouds,dailyrainin,SoftwareType,DateUTC
2013-01-18 00:07:00,22.1,16.0,30.33,WNW,293,3.0,-999.0,76,-99.99,,,0.00,weatherlink.com 1.10,2013-01-18 05:07:00,
2013-01-18 00:22:00,21.9,15.0,30.33,WNW,289,0.0,-999.0,76,-99.99,,,0.00,weatherlink.com 1.10,2013-01-18 05:22:00,
2013-01-18 00:37:00,21.9,15.0,30.33,WNW,289,0.0,-999.0,76,-99.99,,,0.00,weatherlink.com 1.10,2013-01-18 05:37:00,
2013-01-18 00:52:00,21.9,16.0,30.34,WNW,288,4.0,-999.0,77,-99.99,,,0.00,weatherlink.com 1.10,2013-01-18 05:52:00,
2013-01-18 01:07:00,21.7,16.0,30.35,West,281,1.0,-999.0,77,-99.99,,,0.00,weatherlink.com 1.10,2013-01-18 06:07:00,
2013-01-18 01:22:00,21.6,15.0,30.35,West,279,2.0,-999.0,77,-99.99,,,0.00,weatherlink.com 1.10,2013-01-18 06:22:00,
2013-01-18 01:37:00,21.8,16.0,30.36,SW,221,3.0,-999.0,78,-99.99,,,0.00,weatherlink.com 1.10,2013-01-18 06:37:00,
2013-01-18 01:52:00,21.8,16.0,30.36,SW,229,5.0,-999.0,78,-99.99,,,0.00,weatherlink.com 1.10,2013-01-18 06:52:00,
2013-01-18 02:07:00,22.1,16.0,30.36,SW,214,5.0,-999.0,78,-99.99,,,0.00,weatherlink.com 1.10,2013-01-18 07:07:00,
2013-01-18 02:22:00,22.2,16.0,30.38,SW,225,3.0,-999.0,78,-99.99,,,0.00,weatherlink.com 1.10,2013-01-18 07:22:00,
2013-01-18 02:37:00,22.1,17.0,30.38,WSW,237,2.0,-999.0,79,-99.99,,,0.00,weatherlink.com 1.10,2013-01-18 07:37:00,
2013-01-18 02:52:00,22.1,17.0,30.38,WSW,238,1.0,-999.0,79,-99.99,,,0.00,weatherlink.com 1.10,2013-01-18 07:52:00,
2013-01-18 03:07:00,21.9,16.0,30.39,SW,228,5.0,-999.0,79,-99.99,,,0.00,weatherlink.com 1.10,2013-01-18 08:07:00,
2013-01-18 03:22:00,21.8,16.0,30.39,SW,225,3.0,-999.0,79,-99.99,,,0.00,weatherlink.com 1.10,2013-01-18 08:22:00,
2013-01-18 03:37:00,21.8,17.0,30.40,SW,225,3.0,-999.0,80,-99.99,,,0.00,weatherlink.com 1.10,2013-01-18 08:37:00,
2013-01-18 03:52:00,21.9,17.0,30.39,SSW,212,4.0,-999.0,80,-99.99,,,0.00,weatherlink.com 1.10,2013-01-18 08:52:00,
2013-01-18 04:07:00,22.0,17.0,30.39,SW,227,4.0,-999.0,80,-99.99,,,0.00,weatherlink.com 1.10,2013-01-18 09:07:00,
2013-01-18 04:22:00,21.8,17.0,30.39,SSW,213,4.0,-999.0,80,-99.99,,,0.00,weatherlink.com 1.10,2013-01-18 09:22:00,
2013-01-18 04:37:00,21.8,17.0,30.39,SW,229,4.0,-999.0,80,-99.99,,,0.00,weatherlink.com 1.10,2013-01-18 09:37:00,
2013-01-18 04:52:00,21.9,17.0,30.39,SW,226,4.0,-999.0,80,-99.99,,,0.00,weatherlink.com 1.10,2013-01-18 09:52:00,
2013-01-18 05:07:00,21.6,16.0,30.39,SW,220,1.0,-999.0,80,-99.99,,,0.00,weatherlink.com 1.10,2013-01-18 10:07:00,
2013-01-18 05:22:00,21.4,16.0,30.38,SW,221,4.0,-999.0,80,-99.99,,,0.00,weatherlink.com 1.10,2013-01-18 10:22:00,
2013-01-18 05:37:00,21.7,16.0,30.39,SW,236,3.0,-999.0,80,-99.99,,,0.00,weatherlink.com 1.10,2013-01-18 10:37:00,
2013-01-18 05:52:00,21.5,16.0,30.40,SW,217,2.0,-999.0,80,-99.99,,,0.00,weatherlink.com 1.10,2013-01-18 10:52:00,
2013-01-18 06:07:00,21.3,16.0,30.39,SW,219,3.0,-999.0,81,-99.99,,,0.00,weatherlink.com 1.10,2013-01-18 11:07:00,
2013-01-18 06:22:00,21.2,16.0,30.39,SW,218,3.0,-999.0,81,-99.99,,,0.00,weatherlink.com 1.10,2013-01-18 11:22:00,
2013-01-18 06:37:00,21.3,16.0,30.40,SW,224,3.0,-999.0,81,-99.99,,,0.00,weatherlink.com 1.10,2013-01-18 11:37:00,
2013-01-18 06:52:00,21.3,16.0,30.41,SW,222,2.0,-999.0,81,-99.99,,,0.00,weatherlink.com 1.10,2013-01-18 11:52:00,
2013-01-18 07:07:00,21.3,16.0,30.41,SW,225,3.0,-999.0,81,-99.99,,,0.00,weatherlink.com 1.10,2013-01-18 12:07:00,
2013-01-18 07:22:00,21.1,16.0,30.41,SW,225,1.0,-999.0,81,-99.99,,,0.00,weatherlink.com 1.10,2013-01-18 12:22:00,
2013-01-18 07:37:00,21.3,16.0,30.42,SW,216,2.0,-999.0,81,-99.99,,,0.00,weatherlink.com 1.10,2013-01-18 12:37:00,
2013-01-18 07:52:00,21.5,17.0,30.42,SSW,212,2.0,-999.0,82,-99.99,,,0.00,weatherlink.com 1.10,2013-01-18 12:52:00,
2013-01-18 08:07:00,21.8,17.0,30.42,SSW,213,2.0,-999.0,82,-99.99,,,0.00,weatherlink.com 1.10,2013-01-18 13:07:00,
2013-01-18 08:22:00,22.2,18.0,30.42,SW,218,2.0,-999.0,82,-99.99,,,0.00,weatherlink.com 1.10,2013-01-18 13:22:00,
2013-01-18 08:37:00,22.7,18.0,30.42,SW,224,3.0,-999.0,82,-99.99,,,0.00,weatherlink.com 1.10,2013-01-18 13:37:00,
2013-01-18 08:52:00,23.4,19.0,30.43,WSW,239,2.0,-999.0,82,-99.99,,,0.00,weatherlink.com 1.10,2013-01-18 13:52:00,
2013-01-18 09:07:00,24.0,19.0,30.43,SW,225,5.0,-999.0,82,-99.99,,,0.00,weatherlink.com 1.10,2013-01-18 14:07:00,
2013-01-18 09:22:00,24.4,20.0,30.43,SW,215,4.0,-999.0,82,-99.99,,,0.00,weatherlink.com 1.10,2013-01-18 14:22:00,
2013-01-18 09:37:00,24.8,20.0,30.43,WSW,240,3.0,-999.0,81,-99.99,,,0.00,weatherlink.com 1.10,2013-01-18 14:37:00,
2013-01-18 09:52:00,25.3,20.0,30.43,SW,215,4.0,-999.0,81,-99.99,,,0.00,weatherlink.com 1.10,2013-01-18 14:52:00,
2013-01-18 10:07:00,26.2,21.0,30.43,WSW,248,3.0,-999.0,81,-99.99,,,0.00,weatherlink.com 1.10,2013-01-18 15:07:00,
2013-01-18 10:22:00,27.2,22.0,30.44,SW,221,5.0,-999.0,80,-99.99,,,0.00,weatherlink.com 1.10,2013-01-18 15:22:00,
2013-01-18 10:37:00,27.7,22.0,30.43,SW,228,4.0,-999.0,79,-99.99,,,0.00,weatherlink.com 1.10,2013-01-18 15:37:00,
2013-01-18 10:52:00,28.4,23.0,30.42,SW,225,6.0,-999.0,79,-99.99,,,0.00,weatherlink.com 1.10,2013-01-18 15:52:00,
2013-01-18 11:07:00,29.1,23.0,30.42,SW,234,4.0,-999.0,78,-99.99,,,0.00,weatherlink.com 1.10,2013-01-18 16:07:00,
2013-01-18 11:22:00,29.6,23.0,30.41,SSE,163,5.0,-999.0,77,-99.99,,,0.00,weatherlink.com 1.10,2013-01-18 16:22:00,
2013-01-18 11:37:00,29.6,23.0,30.40,SSW,210,6.0,-999.0,76,-99.99,,,0.00,weatherlink.com 1.10,2013-01-18 16:37:00,
2013-01-18 11:52:00,30.0,23.0,30.39,SW,218,6.0,-999.0,76,-99.99,,,0.00,weatherlink.com 1.10,2013-01-18 16:52:00,
2013-01-18 12:07:00,30.1,23.0,30.38,South,188,5.0,-999.0,76,-99.99,,,0.00,weatherlink.com 1.10,2013-01-18 17:07:00,
2013-01-18 12:22:00,30.5,23.0,30.36,SSW,205,10.0,-999.0,75,-99.99,,,0.00,weatherlink.com 1.10,2013-01-18 17:22:00,
2013-01-18 12:37:00,30.8,24.0,30.35,SSW,212,9.0,-999.0,75,-99.99,,,0.00,weatherlink.com 1.10,2013-01-18 17:37:00,
2013-01-18 12:52:00,31.5,24.0,30.34,SW,215,17.0,-999.0,75,-99.99,,,0.00,weatherlink.com 1.10,2013-01-18 17:52:00,
2013-01-18 13:07:00,32.1,25.0,30.32,SW,221,7.0,-999.0,74,-99.99,,,0.00,weatherlink.com 1.10,2013-01-18 18:07:00,
2013-01-18 13:22:00,33.0,26.0,30.32,SSW,212,11.0,-999.0,74,-99.99,,,0.00,weatherlink.com 1.10,2013-01-18 18:22:00,
2013-01-18 13:38:00,33.9,26.0,30.30,SSE,150,5.0,-999.0,74,-99.99,,,0.00,weatherlink.com 1.10,2013-01-18 18:38:00,
2013-01-18 13:53:00,33.5,26.0,30.29,South,189,7.0,-999.0,73,-99.99,,,0.00,weatherlink.com 1.10,2013-01-18 18:53:00,
2013-01-18 14:07:00,34.5,27.0,30.29,South,184,9.0,-999.0,73,-99.99,,,0.00,weatherlink.com 1.10,2013-01-18 19:07:00,
2013-01-18 14:22:00,34.8,27.0,30.28,SSE,168,5.0,-999.0,72,-99.99,,,0.00,weatherlink.com 1.10,2013-01-18 19:22:00,
2013-01-18 14:37:00,35.2,27.0,30.27,SSW,209,12.0,-999.0,72,-99.99,,,0.00,weatherlink.com 1.10,2013-01-18 19:37:00,
2013-01-18 14:52:00,36.0,27.0,30.27,South,179,8.0,-999.0,71,-99.99,,,0.00,weatherlink.com 1.10,2013-01-18 19:52:00,
2013-01-18 15:07:00,36.7,28.0,30.25,SSW,202,16.0,-999.0,71,-99.99,,,0.00,weatherlink.com 1.10,2013-01-18 20:07:00,
2013-01-18 15:22:00,36.6,28.0,30.24,SW,219,17.0,-999.0,70,-99.99,,,0.00,weatherlink.com 1.10,2013-01-18 20:22:00,
2013-01-18 15:37:00,36.5,28.0,30.23,South,186,10.0,-999.0,70,-99.99,,,0.00,weatherlink.com 1.10,2013-01-18 20:37:00,
2013-01-18 16:07:00,36.6,27.0,30.21,SW,223,19.0,-999.0,69,-99.99,,,0.00,weatherlink.com 1.10,2013-01-18 21:07:00,
2013-01-18 16:22:00,36.6,27.0,30.21,SSE,155,14.0,-999.0,68,-99.99,,,0.00,weatherlink.com 1.10,2013-01-18 21:22:00,
2013-01-18 16:37:00,36.6,27.0,30.20,SE,146,6.0,-999.0,68,-99.99,,,0.00,weatherlink.com 1.10,2013-01-18 21:37:00,
2013-01-18 16:52:00,36.3,26.0,30.20,South,171,11.0,-999.0,67,-99.99,,,0.00,weatherlink.com 1.10,2013-01-18 21:52:00,
2013-01-18 17:07:00,36.0,26.0,30.19,SSW,213,6.0,-999.0,67,-99.99,,,0.00,weatherlink.com 1.10,2013-01-18 22:07:00,
2013-01-18 17:22:00,35.7,26.0,30.18,South,184,9.0,-999.0,67,-99.99,,,0.00,weatherlink.com 1.10,2013-01-18 22:22:00,
2013-01-18 17:37:00,35.6,26.0,30.18,South,187,9.0,-999.0,67,-99.99,,,0.00,weatherlink.com 1.10,2013-01-18 22:37:00,
2013-01-18 17:52:00,35.4,25.0,30.17,South,182,9.0,-999.0,67,-99.99,,,0.00,weatherlink.com 1.10,2013-01-18 22:52:00,
2013-01-18 18:07:00,35.3,25.0,30.16,South,186,10.0,-999.0,67,-99.99,,,0.00,weatherlink.com 1.10,2013-01-18 23:07:00,
2013-01-18 18:22:00,35.4,25.0,30.16,South,175,12.0,-999.0,67,-99.99,,,0.00,weatherlink.com 1.10,2013-01-18 23:22:00,
2013-01-18 18:37:00,35.4,25.0,30.16,SSW,194,12.0,-999.0,67,-99.99,,,0.00,weatherlink.com 1.10,2013-01-18 23:37:00,
2013-01-18 18:52:00,35.5,26.0,30.15,South,180,9.0,-999.0,68,-99.99,,,0.00,weatherlink.com 1.10,2013-01-18 23:52:00,
2013-01-18 19:22:00,35.7,26.0,30.14,SW,219,25.0,-999.0,67,-99.99,,,0.00,weatherlink.com 1.10,2013-01-19 00:22:00,
2013-01-18 19:37:00,35.7,26.0,30.13,SSW,203,7.0,-999.0,67,-99.99,,,0.00,weatherlink.com 1.10,2013-01-19 00:37:00,
2013-01-18 19:52:00,35.7,26.0,30.13,South,191,18.0,-999.0,67,-99.99,,,0.00,weatherlink.com 1.10,2013-01-19 00:52:00,
2013-01-18 20:07:00,35.7,26.0,30.12,SW,217,18.0,-999.0,67,-99.99,,,0.00,weatherlink.com 1.10,2013-01-19 01:07:00,
2013-01-18 20:23:00,35.9,26.0,30.11,SSW,209,9.0,-999.0,68,-99.99,,,0.00,weatherlink.com 1.10,2013-01-19 01:23:00,
2013-01-18 20:38:00,35.8,26.0,30.10,SW,224,17.0,-999.0,68,-99.99,,,0.00,weatherlink.com 1.10,2013-01-19 01:38:00,
2013-01-18 20:52:00,35.7,26.0,30.09,SSW,194,12.0,-999.0,68,-99.99,,,0.00,weatherlink.com 1.10,2013-01-19 01:52:00,
2013-01-18 21:07:00,35.9,26.0,30.08,South,189,7.0,-999.0,68,-99.99,,,0.00,weatherlink.com 1.10,2013-01-19 02:07:00,
2013-01-18 21:22:00,36.1,26.0,30.08,SW,229,12.0,-999.0,68,-99.99,,,0.00,weatherlink.com 1.10,2013-01-19 02:22:00,
2013-01-18 21:37:00,36.4,27.0,30.07,SSW,206,7.0,-999.0,69,-99.99,,,0.00,weatherlink.com 1.10,2013-01-19 02:37:00,
2013-01-18 21:52:00,36.7,27.0,30.06,SSE,165,13.0,-999.0,69,-99.99,,,0.00,weatherlink.com 1.10,2013-01-19 02:52:00,
2013-01-18 22:07:00,37.0,28.0,30.05,SSW,212,21.0,-999.0,69,-99.99,,,0.00,weatherlink.com 1.10,2013-01-19 03:07:00,
2013-01-18 22:22:00,37.3,28.0,30.04,SSW,196,16.0,-999.0,69,-99.99,,,0.00,weatherlink.com 1.10,2013-01-19 03:22:00,
2013-01-18 22:37:00,37.4,28.0,30.04,SSE,159,15.0,-999.0,69,-99.99,,,0.00,weatherlink.com 1.10,2013-01-19 03:37:00,
2013-01-18 22:52:00,37.6,28.0,30.03,SW,229,16.0,-999.0,68,-99.99,,,0.00,weatherlink.com 1.10,2013-01-19 03:52:00,
2013-01-18 23:07:00,37.6,28.0,30.03,SSW,207,16.0,-999.0,68,-99.99,,,0.00,weatherlink.com 1.10,2013-01-19 04:07:00,
2013-01-18 23:22:00,37.5,28.0,30.04,SSW,210,19.0,-999.0,68,-99.99,,,0.00,weatherlink.com 1.10,2013-01-19 04:22:00,
2013-01-18 23:38:00,37.5,28.0,30.04,WSW,240,13.0,-999.0,68,-99.99,,,0.00,weatherlink.com 1.10,2013-01-19 04:38:00,
2013-01-18 23:52:00,37.4,28.0,30.04,SW,228,11.0,-999.0,69,-99.99,,,0.00,weatherlink.com 1.10,2013-01-19 04:52:00,